[[{"header":{"parameterUnit":"m.s-1","parameterCategory":1,"la1":30.2991,"la2":30.254,"lo1":-89.0895,"lo2":-89.0444,"dy":0.0017,"dx":0.0017,"nx":28,"ny":28,"refTime":"2025-03-25T03:00:00:Z","depth":0,"parameterNumber":2,"parameterNumberName":"U-component_of_WINDS"},"data":[0,0,0,0,0,0,0,0,0,0,0,0,0,0,0,0,0,0,0,0,0,0,0,0,0,0,0,0,0,0,0,0,0,0,0,0,0,0,0,0,0,0,0,0,0,0,0,0,0,0,0,0,0,0,0,0,0,0,-0.0089,-0.0089,0,-0.0091,-0.0091,-0.0091,-0.0082,-0.0082,-0.0082,-0.0082,-0.0084,-0.0085,-0.0085,0,0,0,0,0,0,0,0,0,0,0,0,0,-0.0079,-0.0079,-0.0089,-0.0089,-0.009,-0.0091,-0.0091,-0.0091,-0.0083,-0.0082,-0.0082,-0.0082,-0.0084,-0.0085,-0.0085,0,0,0,0,0,0,0,0,0,0,0,0,0,-0.0082,-0.0079,-0.0089,-0.0085,-0.0085,-0.0091,-0.0091,-0.0091,-0.0083,-0.0082,-0.0082,-0.0082,-0.0084,-0.0085,-0.0085,-0.0095,0,0,-0.0086,-0.0087,0,0,0,0,0,0,0,0,-0.0082,-0.0083,-0.0086,-0.0086,-0.0085,-0.0086,-0.0088,-0.0092,-0.0083,-0.0084,-0.0082,-0.0081,-0.0085,-0.0086,-0.0087,-0.0095,-0.0095,-0.0086,-0.0087,-0.0087,-0.0087,0,0,0,0,0,0,0,-0.0082,-0.0083,-0.009,-0.0086,-0.0086,-0.0083,-0.0084,-0.0089,-0.0087,-0.0083,-0.0083,-0.0083,-0.0085,-0.0086,-0.0087,-0.0095,-0.0086,-0.0087,-0.0087,-0.0087,-0.0111,-0.0111,0,0,0,0,0,0,-0.0082,-0.0083,-0.009,-0.009,-0.0083,-0.0084,-0.0084,-0.0086,-0.0086,-0.0086,-0.0083,-0.0083,-0.0086,-0.0086,-0.0087,-0.0098,-0.0087,-0.0087,-0.0087,-0.011,-0.0111,-0.0111,0,0,0,0,0,0,-0.0082,-0.0083,-0.009,-0.0086,-0.0087,-0.0085,-0.0087,-0.0086,-0.0088,-0.0086,-0.0086,-0.0085,-0.0085,-0.0086,-0.0093,-0.0098,-0.0087,-0.0088,-0.011,-0.0111,-0.0111,-0.0121,0,0,0,0,0,0,-0.0082,-0.0083,-0.0087,-0.0086,-0.0087,-0.0096,-0.0087,-0.0087,-0.0088,-0.0088,-0.0088,-0.0088,-0.0085,-0.0092,-0.0093,-0.0098,-0.0088,-0.011,-0.011,-0.0111,-0.012,-0.0122,-0.0123,0,0,0,0,0,-0.0081,-0.009,-0.0087,-0.0088,-0.0092,-0.0096,-0.0097,-0.0094,-0.0089,-0.0093,-0.0092,-0.0088,-0.0097,-0.0093,-0.0094,-0.0099,-0.0109,-0.011,-0.0111,-0.012,-0.0122,-0.0123,0,0,0,0,0,0,-0.0093,-0.009,-0.0087,-0.0096,-0.0096,-0.0095,-0.01,-0.0096,-0.0098,-0.0097,-0.0093,-0.0094,-0.0101,-0.0101,-0.0096,-0.0109,-0.0102,-0.0103,-0.0109,-0.011,-0.0112,-0.0112,-0.0089,0,0,0,0,0,-0.0096,-0.01,-0.0097,-0.0105,-0.0106,-0.0103,-0.0104,-0.0102,-0.0102,-0.0103,-0.0102,-0.0103,-0.0106,-0.0108,-0.0111,-0.012,-0.0119,-0.0124,-0.0125,-0.0127,-0.0128,-0.0132,-0.0134,-0.0114,-0.0114,-0.0114,0,0,-0.0103,-0.0102,-0.0105,-0.0107,-0.0108,-0.0111,-0.0103,-0.0108,-0.011,-0.0103,-0.0109,-0.0109,-0.0109,-0.0117,-0.012,-0.0117,-0.0133,-0.0128,-0.0129,-0.0129,-0.0133,-0.0135,-0.0136,-0.0115,-0.0114,-0.0114,0,0,-0.0118,-0.0118,-0.0124,-0.0124,-0.0124,-0.0122,-0.0123,-0.0122,-0.0121,-0.0127,-0.0121,-0.0124,-0.013,-0.013,-0.0131,-0.0144,-0.014,-0.0145,-0.0153,-0.0157,-0.0158,-0.016,-0.0164,-0.0166,-0.0146,-0.0146,-0.0146,0,-0.0128,-0.0133,-0.0128,-0.0133,-0.0134,-0.0126,-0.0132,-0.0133,-0.0133,-0.0134,-0.013,-0.0136,-0.0136,-0.0143,-0.0146,-0.0147,-0.0148,-0.0145,-0.0159,-0.016,-0.0161,-0.0165,-0.0167,-0.0147,-0.0147,-0.0146,-0.0146,0,-0.0144,-0.0148,-0.0153,-0.0153,-0.0154,-0.0159,-0.0155,-0.0157,-0.0153,-0.0151,-0.0157,-0.0156,-0.0158,-0.0159,-0.0157,-0.0166,-0.0164,-0.0159,-0.0153,-0.0164,-0.0167,-0.0169,-0.0147,-0.0147,-0.0147,-0.0147,0,0,-0.0168,-0.0164,-0.0166,-0.0165,-0.0164,-0.0166,-0.0171,-0.0172,-0.0173,-0.0174,-0.0177,-0.0181,-0.0176,-0.0177,-0.0174,-0.0177,-0.0187,-0.0173,-0.0172,-0.0175,-0.0197,-0.02,-0.0202,-0.0184,-0.0184,-0.0185,-0.0196,0,-0.0183,-0.019,-0.0185,-0.0193,-0.0196,-0.0188,-0.0192,-0.0191,-0.0189,-0.019,-0.0188,-0.0191,-0.0185,-0.0185,-0.0188,-0.0185,-0.0191,-0.0184,-0.0187,-0.0188,-0.0188,-0.0204,-0.0208,-0.022,-0.0198,-0.0198,-0.0198,0,-0.0201,-0.0201,-0.021,-0.0206,-0.0207,-0.021,-0.021,-0.0212,-0.0211,-0.0209,-0.0209,-0.0204,-0.0208,-0.0201,-0.0206,-0.0201,-0.0202,-0.02,-0.0201,-0.0201,-0.0194,-0.0205,-0.0223,-0.0225,-0.0201,-0.02,-0.02,0,-0.0218,-0.022,-0.0225,-0.0225,-0.0221,-0.0223,-0.0222,-0.022,-0.022,-0.022,-0.022,-0.0221,-0.0221,-0.0221,-0.0217,-0.0212,-0.0222,-0.0215,-0.022,-0.022,-0.0223,-0.0223,-0.0242,-0.0223,-0.0223,-0.0223,-0.0223,0,-0.0235,-0.024,-0.0232,-0.0235,-0.024,-0.0234,-0.0239,-0.0237,-0.0235,-0.0237,-0.023,-0.0233,-0.0226,-0.0228,-0.0224,-0.0228,-0.0228,-0.0227,-0.0226,-0.0227,-0.0228,-0.0228,-0.0228,-0.0224,-0.0223,-0.0223,-0.0223,0,-0.0255,-0.0249,-0.0254,-0.0249,-0.0248,-0.0252,-0.0248,-0.0251,-0.0247,-0.025,-0.025,-0.0245,-0.0246,-0.0241,-0.0241,-0.0239,-0.0245,-0.0242,-0.0245,-0.0245,-0.025,-0.025,-0.027,-0.0272,-0.0252,-0.0252,-0.0253,0,-0.0267,-0.027,-0.0265,-0.0266,-0.0265,-0.0266,-0.0266,-0.0259,-0.026,-0.0257,-0.026,-0.026,-0.026,-0.0262,-0.0258,-0.0258,-0.0256,-0.0263,-0.0256,-0.0257,-0.0256,-0.0256,-0.0256,-0.0265,-0.0265,-0.0265,-0.0265,0,-0.0288,-0.0284,-0.0285,-0.0284,-0.0284,-0.0283,-0.0282,-0.0283,-0.0275,-0.0276,-0.0276,-0.0276,-0.0276,-0.0276,-0.0275,-0.0273,-0.0268,-0.0267,-0.0269,-0.0271,-0.0272,-0.0271,-0.025,-0.0267,-0.0267,-0.0267,-0.0267,-0.0267,-0.0304,-0.0306,-0.0303,-0.0303,-0.0301,-0.0299,-0.0301,-0.0297,-0.0297,-0.0296,-0.0292,-0.0293,-0.029,-0.0288,-0.0286,-0.0287,-0.0284,-0.0286,-0.0286,-0.0287,-0.0288,-0.0271,-0.0287,-0.0287,-0.0287,-0.0287,-0.0287,0,-0.0325,-0.0322,-0.0322,-0.0319,-0.0319,-0.0313,-0.0311,-0.0311,-0.0312,-0.031,-0.0309,-0.0309,-0.0309,-0.0304,-0.0303,-0.0305,-0.0302,-0.0305,-0.0305,-0.0305,-0.0291,-0.029,-0.0307,-0.0307,-0.0307,-0.0307,-0.0307,-0.0307,-0.0336,-0.0339,-0.0335,-0.0337,-0.0334,-0.0335,-0.0334,-0.0332,-0.033,-0.033,-0.0329,-0.0326,-0.0322,-0.0321,-0.032,-0.0319,-0.0319,-0.0322,-0.032,-0.0308,-0.0306,-0.0304,-0.0303,-0.0322,-0.0322,-0.0333,-0.0333,-0.0333]},{"header":{"parameterUnit":"m.s-1","parameterCategory":1,"la1":30.2991,"la2":30.254,"lo1":-89.0895,"lo2":-89.0444,"dy":0.0017,"dx":0.0017,"nx":28,"ny":28,"refTime":"2025-03-25T03:00:00:Z","depth":0,"parameterNumber":3,"parameterNumberName":"V-component_of_WINDS"},"data":[0,0,0,0,0,0,0,0,0,0,0,0,0,0,0,0,0,0,0,0,0,0,0,0,0,0,0,0,0,0,0,0,0,0,0,0,0,0,0,0,0,0,0,0,0,0,0,0,0,0,0,0,0,0,0,0,0,0,-0.9815,-0.9816,0,-0.9863,-0.9864,-0.9864,-0.9876,-0.9876,-0.9876,-0.9875,-0.9923,-0.9924,-0.9926,0,0,0,0,0,0,0,0,0,0,0,0,0,-0.9733,-0.9735,-0.9815,-0.9816,-0.9817,-0.9863,-0.9864,-0.9864,-0.9876,-0.9876,-0.9876,-0.9875,-0.9922,-0.9924,-0.9926,0,0,0,0,0,0,0,0,0,0,0,0,0,-0.9774,-0.9735,-0.9815,-0.9828,-0.983,-0.9863,-0.9864,-0.9865,-0.9876,-0.9876,-0.9876,-0.9875,-0.9922,-0.9924,-0.9926,-0.9949,0,0,-0.9933,-0.9934,0,0,0,0,0,0,0,0,-0.9771,-0.9777,-0.9826,-0.9827,-0.9829,-0.9863,-0.9852,-0.9893,-0.9877,-0.9859,-0.9875,-0.9875,-0.9903,-0.9907,-0.9917,-0.9952,-0.9954,-0.9933,-0.9935,-0.9936,-0.9936,0,0,0,0,0,0,0,-0.9769,-0.9775,-0.9834,-0.9826,-0.9829,-0.9831,-0.9836,-0.986,-0.9883,-0.986,-0.9861,-0.9867,-0.9904,-0.9915,-0.9918,-0.9954,-0.9933,-0.9935,-0.9937,-0.9938,-1.0011,-1.0011,0,0,0,0,0,0,-0.9764,-0.9772,-0.9833,-0.9836,-0.9799,-0.9833,-0.9839,-0.9853,-0.9883,-0.9887,-0.9867,-0.9867,-0.9911,-0.9915,-0.992,-0.9949,-0.9936,-0.9938,-0.9939,-1.001,-1.0011,-1.0011,0,0,0,0,0,0,-0.9762,-0.9769,-0.9831,-0.9804,-0.9812,-0.9835,-0.985,-0.9854,-0.9865,-0.9888,-0.9892,-0.9874,-0.9911,-0.9917,-0.9942,-0.9951,-0.9939,-0.9941,-1.0009,-1.001,-1.0011,-1.0008,0,0,0,0,0,0,-0.976,-0.9768,-0.9778,-0.9804,-0.9814,-0.9853,-0.9851,-0.9855,-0.9869,-0.9869,-0.9895,-0.9899,-0.9911,-0.9939,-0.9944,-0.9954,-0.9943,-1.0009,-1.001,-1.0011,-1.0008,-1.0009,-1.001,0,0,0,0,0,-0.9757,-0.9775,-0.9778,-0.9785,-0.9826,-0.9853,-0.9858,-0.9872,-0.9869,-0.9879,-0.9894,-0.9898,-0.9949,-0.9941,-0.9948,-0.9958,-1.0008,-1.001,-1.0011,-1.0007,-1.0009,-1.001,0,0,0,0,0,0,-0.9748,-0.9778,-0.9783,-0.981,-0.9829,-0.9855,-0.9867,-0.9873,-0.9893,-0.9893,-0.9908,-0.9914,-0.9939,-0.9951,-0.9941,-0.9982,-0.9979,-0.9981,-0.9974,-0.9975,-0.9976,-0.9973,-0.9945,0,0,0,0,0,-0.9749,-0.9769,-0.9794,-0.9816,-0.9825,-0.9845,-0.9857,-0.9866,-0.9886,-0.9894,-0.9911,-0.993,-0.995,-0.9963,-0.9983,-1.0009,-1.0015,-1.002,-1.0021,-1.0022,-1.0024,-1.0039,-1.0041,-1.0015,-1.0015,-1.0015,0,0,-0.9752,-0.9771,-0.9782,-0.9815,-0.983,-0.9851,-0.9851,-0.9872,-0.9887,-0.9897,-0.9923,-0.9936,-0.9958,-0.9984,-0.9996,-0.9995,-1.0032,-1.0023,-1.0024,-1.0025,-1.004,-1.0043,-1.0045,-1.0016,-1.0016,-1.0016,0,0,-0.9767,-0.9783,-0.9803,-0.9819,-0.9844,-0.9856,-0.9861,-0.9887,-0.9896,-0.9922,-0.993,-0.9947,-0.9982,-0.9998,-1.001,-1.0031,-1.0036,-1.0037,-1.0043,-1.0058,-1.006,-1.0062,-1.0069,-1.0072,-1.0039,-1.0039,-1.0039,0,-0.9767,-0.9798,-0.9813,-0.9834,-0.9848,-0.9858,-0.9878,-0.9893,-0.9922,-0.9931,-0.9929,-0.9973,-0.9989,-1.0019,-1.0024,-1.0034,-1.004,-1.0035,-1.0058,-1.006,-1.0062,-1.007,-1.0073,-1.0039,-1.0039,-1.0039,-1.0039,0,-0.9797,-0.9819,-0.9832,-0.986,-0.9876,-0.9896,-0.9914,-0.9927,-0.9935,-0.9948,-0.9974,-0.9993,-1.0017,-1.0025,-1.0032,-1.0056,-1.0054,-1.0055,-1.0052,-1.0064,-1.0072,-1.0075,-1.0039,-1.0039,-1.0039,-1.0039,0,0,-0.9808,-0.9845,-0.985,-0.9863,-0.9891,-0.9907,-0.9928,-0.9952,-0.9964,-0.9983,-1.0001,-1.003,-1.0031,-1.0045,-1.0055,-1.0067,-1.0083,-1.0066,-1.0067,-1.0069,-1.0111,-1.011,-1.0113,-1.0086,-1.0087,-1.0087,-1.0109,0,-0.9827,-0.9866,-0.9879,-0.9911,-0.9931,-0.9941,-0.9959,-0.9977,-0.999,-1.0008,-1.0022,-1.0042,-1.0042,-1.0051,-1.0064,-1.0078,-1.0092,-1.0077,-1.0103,-1.0104,-1.0097,-1.0117,-1.0117,-1.0136,-1.0112,-1.0112,-1.0113,0,-0.9855,-0.9876,-0.9909,-0.9934,-0.9943,-0.9959,-0.9983,-1.0,-1.0021,-1.0029,-1.0045,-1.0054,-1.0076,-1.0071,-1.0101,-1.0091,-1.0102,-1.0111,-1.0112,-1.0115,-1.0109,-1.0121,-1.0142,-1.0145,-1.0117,-1.0117,-1.0117,0,-0.986,-0.9896,-0.9921,-0.9932,-0.9962,-0.9973,-0.9986,-1.0007,-1.002,-1.0041,-1.005,-1.0072,-1.0084,-1.0101,-1.0115,-1.011,-1.0144,-1.014,-1.0151,-1.0151,-1.0158,-1.0158,-1.0182,-1.0165,-1.0165,-1.0165,-1.0165,0,-0.988,-0.99,-0.9924,-0.9939,-0.9962,-0.9977,-0.9999,-1.0013,-1.0031,-1.0049,-1.0058,-1.0075,-1.0092,-1.0111,-1.0122,-1.0145,-1.015,-1.0158,-1.016,-1.0157,-1.0156,-1.0165,-1.0164,-1.0166,-1.0165,-1.0165,-1.0165,0,-0.989,-0.9906,-0.9934,-0.996,-0.9968,-0.9983,-1.0005,-1.002,-1.0033,-1.0056,-1.0062,-1.0082,-1.0104,-1.012,-1.0149,-1.0156,-1.0181,-1.0184,-1.0174,-1.0176,-1.0186,-1.0185,-1.0217,-1.0222,-1.0202,-1.0202,-1.0202,0,-0.9902,-0.9917,-0.9945,-0.9958,-0.9972,-0.9992,-1.0006,-1.0022,-1.0036,-1.0062,-1.0074,-1.0097,-1.0116,-1.0151,-1.0168,-1.019,-1.0193,-1.0203,-1.0197,-1.0193,-1.0194,-1.0193,-1.0195,-1.0204,-1.0204,-1.0204,-1.0204,0,-0.9921,-0.9928,-0.9949,-0.9972,-0.9989,-1.0008,-1.0027,-1.0037,-1.0056,-1.0072,-1.0095,-1.011,-1.0139,-1.0162,-1.0186,-1.0199,-1.0205,-1.0206,-1.021,-1.0207,-1.0201,-1.0205,-1.0177,-1.0206,-1.0205,-1.0205,-1.0205,-1.0205,-0.9932,-0.9947,-0.9969,-0.9992,-1.0008,-1.0025,-1.0041,-1.0056,-1.0076,-1.0102,-1.0109,-1.0134,-1.0154,-1.0187,-1.02,-1.0219,-1.0218,-1.0224,-1.0225,-1.0226,-1.0226,-1.0198,-1.0223,-1.0223,-1.0223,-1.0223,-1.0223,0,-0.9952,-0.9967,-0.9988,-1.0015,-1.0032,-1.0037,-1.0058,-1.0072,-1.0094,-1.0113,-1.0132,-1.0159,-1.0181,-1.02,-1.0223,-1.0234,-1.0238,-1.024,-1.0239,-1.0242,-1.0225,-1.022,-1.0237,-1.0237,-1.0237,-1.0237,-1.0237,-1.0237,-0.9965,-0.999,-1.0,-1.0033,-1.0048,-1.0072,-1.0084,-1.01,-1.0116,-1.0146,-1.0164,-1.0177,-1.0196,-1.022,-1.024,-1.0245,-1.0253,-1.0255,-1.026,-1.0245,-1.0243,-1.0242,-1.0237,-1.0256,-1.0257,-1.0276,-1.0276,-1.0276]}]]